Location: Mountain Grove
(34.0887°N, 86.6172°W)
Time: 21:10:39
(UTC+00:00)

Cosmos 1975 - Pass Details

Date: 14 July 2020
Orbit: 542 x 561 km, 82.5° (Epoch: 08 August)

Event Time Altitude Azimuth Distance (km) Brightness Sun altitude
Exits shadow 08:33:09 22° 134° (SE) 1,227 4.5 -22.5°
Maximum altitude 08:34:53 31° 91° (E) 973 4.4 -22.2°
Drops below altitude 10° 08:38:24 10° 29° (NNE) 1,813 6.5 -21.8°
Sets 08:40:44 0° 19° (NNE) 2,708 7.5 -21.4°
